Location: Spruce Knob
(38.6995°N, 79.5330°W)
Time: 21:40:19
(UTC-04:00)

A-11 Canister half - Pass Details

Date: 28 January 2022
Orbit: 1513 x 1686 km, 47.2° (Epoch: 24 May)

Event Time Altitude Azimuth Distance (km) Brightness Sun altitude
Rises 14:53:55 0° 215° (SW) 4,831 13.0 24.1°
Reaches altitude 10° 14:57:11 10° 210° (SSW) 3,823 13.0 23.8°
Maximum altitude 15:06:27 53° 137° (SE) 1,877 9.9 22.6°
Drops below altitude 10° 15:15:25 10° 65° (ENE) 3,711 10.6 21.5°
Sets 15:18:31 0° 61° (ENE) 4,681 11.0 21.1°
